East Milton, MA

4:18 AM EDT on May 28, 2018 (GMT -0400)
East Milton

Weather History for KMQE - April, 2014

Change the Weather History Date:

Thursday, April 24, 2014

  Actual Average (KOWD) Record (KOWD)
Temperature  
Mean Temperature 46 °F -  
Max Temperature 57 °F 60 °F 84 °F (2001)
Min Temperature 37 °F 36 °F 26 °F (2002)
Degree Days  
Heating Degree Days 19    
Moisture  
Dew Point 23 °F    
Average Humidity 41    
Maximum Humidity 60    
Minimum Humidity 27    
Precipitation  
Precipitation 0.00 in - - ()
Sea Level Pressure  
Sea Level Pressure 29.72 in    
Wind  
Wind Speed 23 mph (NW)    
Max Wind Speed 34 mph    
Max Gust Speed 51 mph    
Averages and records for this station are not official NWS values.
T = Trace of Precipitation, MM = Missing Value Source: NWS Daily Summary

Daily Weather History Graph

Daily Weather History Graph

Search for Another Location

Airport or City:

Astronomy

Apr. 24, 2014 Rise Set
Actual Time 5:49 AM EDT 7:35 PM EDT
Civil Twilight 5:20 AM EDT 8:05 PM EDT
Nautical Twilight 4:43 AM EDT 8:42 PM EDT
Astronomical Twilight 4:04 AM EDT 9:21 PM EDT
Moon 3:04 AM EDT (4/24) 2:42 PM EDT (4/24)
Length of Visible Light 14h 45m
Length of Day
13h 46m
Waning Crescent, 24% of the Moon is Illuminated
Apr 24
Waning Crescent
Apr 29
New
May 6
First Quarter
May 14
Full
May 21
Last Quarter

Hourly Weather History & Observations

Time (EDT) Temp. Windchill Dew Point Humidity Pressure Visibility Wind Dir Wind Speed Gust Speed Precip Events Conditions
12:54 AM 43.0 °F 34.2 °F 30.0 °F 60% 29.63 in - NW 20.7 mph 33.4 mph N/A   Unknown
1:54 AM 43.0 °F 33.3 °F 28.9 °F 58% 29.62 in - NW 25.3 mph 38.0 mph N/A   Unknown
2:54 AM 42.1 °F 32.6 °F 27.0 °F 55% 29.61 in - NW 23.0 mph 39.1 mph N/A   Unknown
3:54 AM 39.9 °F 30.8 °F 26.1 °F 58% 29.62 in - NW 18.4 mph 29.9 mph N/A   Unknown
4:54 AM 39.0 °F 29.3 °F 23.0 °F 53% 29.63 in - NW 19.6 mph 42.6 mph N/A   Unknown
5:54 AM 37.9 °F 27.6 °F 21.0 °F 51% 29.65 in - NW 20.7 mph 34.5 mph N/A   Unknown
6:54 AM 39.0 °F 27.8 °F 18.0 °F 43% 29.66 in - NW 26.5 mph 42.6 mph N/A   Unknown
7:54 AM 39.9 °F 29.5 °F 18.0 °F 41% 29.67 in - NW 24.2 mph 38.0 mph N/A   Unknown
8:54 AM 42.1 °F 32.6 °F 16.0 °F 35% 29.68 in - NW 23.0 mph 43.7 mph N/A   Unknown
9:54 AM 44.1 °F 34.0 °F 19.0 °F 37% 29.69 in - NW 29.9 mph 44.9 mph N/A   Unknown
10:54 AM 48.0 °F - 21.9 °F 36% 29.69 in - NW 31.1 mph 43.7 mph N/A   Unknown
11:54 AM 51.1 °F - 23.0 °F 33% 29.69 in - NW 25.3 mph 41.4 mph N/A   Unknown
12:54 PM 52.0 °F - 23.0 °F 32% 29.68 in - NW 29.9 mph 46.0 mph N/A   Unknown
1:54 PM 54.0 °F - 21.0 °F 28% 29.69 in - NNW 20.7 mph 43.7 mph N/A   Unknown
2:54 PM 55.0 °F - 21.0 °F 27% 29.70 in - NNW 21.9 mph 43.7 mph N/A   Unknown
3:54 PM 55.9 °F - 21.9 °F 27% 29.70 in - NW 24.2 mph 44.9 mph N/A   Unknown
4:54 PM 55.0 °F - 23.0 °F 29% 29.72 in - NW 34.5 mph 50.6 mph N/A   Unknown
5:54 PM 53.1 °F - 23.0 °F 31% 29.76 in - NNW 26.5 mph 41.4 mph N/A   Unknown
6:54 PM 51.1 °F - 23.0 °F 33% 29.80 in - NNW 23.0 mph 34.5 mph N/A   Unknown
7:54 PM 48.9 °F - 23.0 °F 36% 29.84 in - NNW 20.7 mph 34.5 mph N/A   Unknown
8:54 PM 48.0 °F - 24.1 °F 39% 29.88 in - NW 23.0 mph 36.8 mph N/A   Unknown
9:54 PM 46.9 °F - 25.0 °F 42% 29.92 in - NW 16.1 mph 32.2 mph N/A   Unknown
10:54 PM 45.0 °F 39.7 °F 25.0 °F 46% 29.93 in - NW 10.4 mph 19.6 mph N/A   Unknown
11:54 PM 43.0 °F 38.2 °F 25.0 °F 49% 29.94 in - NW 8.1 mph - N/A   Unknown